| time (UTC) | temp F | wind direction | speed knots | gust knots | rain 1hr in | rain 24hr in | rain mn in | humidity % | barometer mb |
| 20260507193730 | 58 | 345 | 0.0 | 0.0 | 0.00 | 0.00 | 0.00 | 74 | 972.7 |
| 20260507190730 | 60 | 344 | 0.0 | 0.0 | 0.00 | 0.00 | 0.00 | 71 | 972.5 |
| 20260507183729 | 62 | 340 | 0.0 | 0.0 | 0.00 | 0.00 | 0.00 | 69 | 972.2 |
| 20260507182126 | 63 | 346 | 0.0 | 0.0 | 0.00 | 0.00 | 0.00 | 67 | 972.1 |
| 20260507173730 | 64 | 13 | 0.0 | 0.0 | 0.00 | 0.00 | 0.00 | 64 | 971.9 |
| 20260507170730 | 64 | 32 | 0.0 | 0.9 | 0.00 | 0.00 | 0.00 | 64 | 971.9 |
| 20260507163732 | 65 | 350 | 0.0 | 2.6 | 0.00 | 0.00 | 0.00 | 64 | 971.9 |
| 20260507160728 | 65 | 355 | 0.0 | 0.0 | 0.00 | 0.00 | 0.00 | 63 | 972.0 |
| 20260507153726 | 66 | 350 | 0.0 | 1.7 | 0.00 | 0.00 | 0.00 | 63 | 972.1 |
| 20260507150723 | 67 | 351 | 0.0 | 0.0 | 0.00 | 0.00 | 0.00 | 63 | 972.3 |
| 20260507145117 | 67 | 0 | 0.0 | 1.7 | 0.00 | 0.00 | 0.00 | 62 | 972.5 |
| 20260507140725 | 68 | 0 | 0.0 | 0.0 | 0.00 | 0.00 | 0.00 | 59 | 972.5 |
| 20260507133720 | 69 | 0 | 0.0 | 0.0 | 0.00 | 0.00 | 0.00 | 60 | 972.7 |
| 20260507130718 | 69 | 0 | 0.0 | 3.5 | 0.00 | 0.00 | 0.00 | 58 | 973.1 |
| 20260507123719 | 69 | 29 | 0.0 | 0.0 | 0.00 | 0.00 | 0.00 | 65 | 973.3 |
| 20260507113713 | 68 | 292 | 0.0 | 0.0 | 0.00 | 0.00 | 0.00 | 66 | 973.4 |
| 20260507110710 | 68 | 351 | 0.0 | 0.9 | 0.00 | 0.00 | 0.00 | 65 | 973.6 |
| 20260507103706 | 64 | 333 | 0.0 | 0.0 | 0.00 | 0.00 | 0.00 | 69 | 973.8 |
| 20260507100706 | 65 | 355 | 0.0 | 0.0 | 0.00 | 0.02 | 0.00 | 65 | 973.8 |
| 20260507093704 | 64 | 46 | 0.0 | 0.0 | 0.00 | 0.02 | 0.00 | 72 | 974.0 |
| 20260507090703 | 64 | 92 | 0.0 | 0.0 | 0.00 | 0.02 | 0.00 | 72 | 973.9 |
| 20260507083705 | 62 | 50 | 0.0 | 0.0 | 0.00 | 0.02 | 0.00 | 75 | 973.7 |
| 20260507080704 | 60 | 10 | 0.0 | 0.0 | 0.00 | 0.05 | 0.00 | 78 | 973.8 |
| 20260507073705 | 59 | 75 | 0.0 | 0.0 | 0.00 | 0.09 | 0.00 | 79 | 973.7 |
| 20260507072050 | 57 | 286 | 0.0 | 0.0 | 0.00 | 0.14 | 0.00 | 87 | 973.6 |
| 20260507063704 | 54 | 107 | 0.0 | 0.0 | 0.00 | 0.19 | 0.00 | 95 | 973.4 |
| 20260507060704 | 50 | 108 | 0.0 | 0.0 | 0.00 | 0.22 | 0.00 | 95 | 973.3 |
| 20260507055049 | 46 | 109 | 0.0 | 0.0 | 0.00 | 0.24 | 0.00 | 94 | 973.2 |
| 20260507050703 | 45 | 109 | 0.0 | 0.0 | 0.00 | 0.25 | 0.00 | 93 | 973.1 |
| 20260507043704 | 45 | 108 | 0.0 | 0.0 | 0.00 | 0.29 | 0.00 | 92 | 972.8 |
| 20260507040706 | 46 | 108 | 0.0 | 0.0 | 0.00 | 0.34 | 0.00 | 92 | 972.6 |
| 20260507040509 | 46 | 109 | 0.0 | 0.0 | 0.00 | 0.39 | 0.00 | 92 | 972.6 |
| 20260507030701 | 47 | 109 | 0.0 | 0.0 | 0.00 | 0.43 | 0.00 | 92 | 972.6 |
| 20260507023701 | 47 | 109 | 0.0 | 0.0 | 0.00 | 0.46 | 0.00 | 92 | 972.5 |
| 20260507013656 | 49 | 108 | 0.0 | 0.0 | 0.00 | 0.53 | 0.00 | 92 | 972.3 |
| 20260507010657 | 49 | 109 | 0.0 | 0.0 | 0.00 | 0.54 | 0.00 | 92 | 972.3 |
| 20260507003655 | 49 | 109 | 0.0 | 0.0 | 0.00 | 0.54 | 0.00 | 91 | 972.4 |
| 20260507000656 | 49 | 108 | 0.0 | 0.0 | 0.00 | 0.54 | 0.00 | 91 | 972.4 |
| 20260506233655 | 48 | 108 | 0.0 | 0.0 | 0.00 | 0.55 | 0.00 | 90 | 972.2 |
| 20260506230656 | 49 | 108 | 0.0 | 0.0 | 0.00 | 0.56 | 0.00 | 88 | 972.3 |
| 20260506225047 | 49 | 108 | 0.0 | 0.0 | 0.00 | 0.56 | 0.00 | 88 | 972.2 |
| 20260506220654 | 50 | 108 | 0.0 | 0.0 | 0.00 | 0.56 | 0.00 | 87 | 972.2 |
| 20260506213652 | 51 | 99 | 0.0 | 0.0 | 0.00 | 0.56 | 0.56 | 87 | 971.9 |
| 20260506210654 | 51 | 98 | 0.0 | 0.0 | 0.00 | 0.60 | 0.56 | 86 | 971.8 |
| 20260506203651 | 52 | 94 | 0.0 | 0.0 | 0.00 | 0.62 | 0.56 | 86 | 971.5 |
| 20260506200651 | 54 | 63 | 0.0 | 2.6 | 0.00 | 0.64 | 0.56 | 85 | 971.4 |